Location: Nitra
(48.3167°N, 18.0833°E)
Time: 08:17:41
(UTC+02:00)

STARLINK-1722 - Pass Details

Date: 24 September 2020
Orbit: 378 x 381 km, 53.0° (Epoch: 23 October)

Event Time Altitude Azimuth Distance (km) Brightness Sun altitude
Exits shadow 03:37:39 14° 56° (NE) 1,197 6.2 -28.8°
Drops below altitude 10° 03:38:10 10° 60° (ENE) 1,392 6.6 -28.8°
Enters shadow 04:34:38 -68° 266° (W) 12,238 10.4 -20.7°
Maximum altitude 05:11:27 36° 9° (N) 622 4.1 -14.9°
